Weather History for PAPG - October, 2011

Change the Weather History Date:

Tuesday, October 18, 2011

  Actual Average Record
Temperature  
Mean Temperature 50 °F -  
Max Temperature 53 °F 45 °F 57 °F (1998)
Min Temperature 46 °F 38 °F 25 °F (1992)
Degree Days  
Heating Degree Days 16    
Moisture  
Dew Point 44 °F    
Average Humidity 81    
Maximum Humidity 94    
Minimum Humidity 62    
Precipitation  
Precipitation 0.00 in - - ()
Sea Level Pressure  
Sea Level Pressure 29.83 in    
Wind  
Wind Speed 6 mph (South)    
Max Wind Speed 14 mph    
Max Gust Speed 24 mph    
Visibility 9 miles    
Events      
Averages and records for this station are not official NWS values.
T = Trace of Precipitation, MM = Missing Value Source: NWS Daily Summary

Daily Weather History Graph

Daily Weather History Graph

Search for Another Location

Airport or City:

Trip Planner

Search our weather history database for the weather conditions in past years. The results will help you decide how hot, cold, wet, or windy it might be!

Date:

Astronomy

Oct. 18, 2011 Rise Set
Actual Time 7:30 AM AKDT 5:42 PM AKDT
Civil Twilight 6:52 AM AKDT 6:20 PM AKDT
Nautical Twilight 6:08 AM AKDT 7:04 PM AKDT
Astronomical Twilight 5:23 AM AKDT 7:48 PM AKDT
Moon 9:49 PM AKDT (10/18) 2:10 PM AKDT (10/18)
Length of Visible Light 11h 28m
Length of Day
10h 11m
Waning Gibbous, 63% of the Moon is Illuminated
Oct 18
Waning Gibbous
Oct 19
Last Quarter
Oct 26
New
Nov 2
First Quarter
Nov 10
Full

Hourly Weather History & Observations

Time (AKDT) Temp. Windchill Dew Point Humidity Pressure Visibility Wind Dir Wind Speed Gust Speed Precip Events Conditions
12:16 AM 50.0 °F - 46.4 °F 87% 29.73 in 9.0 mi SSE 5.8 mph - N/A   Overcast
12:36 AM 48.2 °F - 46.4 °F 93% 29.74 in 9.0 mi NW 6.9 mph - N/A   Overcast
12:56 AM 48.2 °F - 46.4 °F 93% 29.73 in 10.0 mi North 4.6 mph - N/A   Overcast
1:16 AM 48.2 °F - 46.4 °F 93% 29.73 in 7.0 mi NW 3.5 mph - N/A   Overcast
1:36 AM 50.0 °F - 48.2 °F 94% 29.73 in 10.0 mi East 5.8 mph - N/A   Overcast
1:56 AM 50.0 °F - 48.2 °F 94% 29.74 in 9.0 mi Calm Calm - N/A   Overcast
2:16 AM 50.0 °F - 48.2 °F 94% 29.74 in 6.0 mi South 4.6 mph - N/A   Overcast
2:36 AM 53.6 °F - 48.2 °F 82% 29.75 in 9.0 mi South 10.4 mph - N/A   Overcast
2:56 AM 51.8 °F - 46.4 °F 82% 29.75 in 10.0 mi SSW 11.5 mph 21.9 mph N/A   Overcast
3:16 AM 51.8 °F - 46.4 °F 82% 29.76 in 10.0 mi SSW 10.4 mph 24.2 mph N/A   Mostly Cloudy
3:36 AM 51.8 °F - 46.4 °F 82% 29.76 in 10.0 mi SW 6.9 mph - N/A   Mostly Cloudy
3:56 AM 51.8 °F - 46.4 °F 82% 29.77 in 10.0 mi South 3.5 mph - N/A   Overcast
4:16 AM 50.0 °F - 46.4 °F 87% 29.77 in 10.0 mi SSW 10.4 mph 18.4 mph N/A   Overcast
4:36 AM 50.0 °F - 44.6 °F 82% 29.78 in 8.0 mi SSW 4.6 mph - N/A   Overcast
4:56 AM 50.0 °F - 44.6 °F 82% 29.78 in 8.0 mi SW 8.1 mph 17.3 mph N/A   Overcast
5:16 AM 50.0 °F - 44.6 °F 82% 29.77 in 10.0 mi SSW 6.9 mph - N/A   Overcast
5:36 AM 51.8 °F - 46.4 °F 82% 29.78 in 10.0 mi SSE 8.1 mph 17.3 mph N/A   Overcast
5:56 AM 50.0 °F - 44.6 °F 82% 29.79 in 10.0 mi SSE 10.4 mph 16.1 mph N/A   Overcast
6:16 AM 51.8 °F - 44.6 °F 76% 29.79 in 10.0 mi SE 10.4 mph 16.1 mph N/A   Overcast
6:36 AM 51.8 °F - 44.6 °F 76% 29.80 in 10.0 mi SSE 9.2 mph 19.6 mph N/A   Overcast
6:56 AM 50.0 °F - 44.6 °F 82% 29.80 in 10.0 mi SSW 11.5 mph 23.0 mph N/A   Overcast
7:16 AM 50.0 °F - 46.4 °F 87% 29.81 in 10.0 mi SSE 8.1 mph 16.1 mph N/A   Overcast
7:36 AM 50.0 °F - 44.6 °F 82% 29.82 in 10.0 mi SSW 9.2 mph 17.3 mph N/A   Overcast
7:56 AM 50.0 °F - 44.6 °F 82% 29.83 in 10.0 mi SSW 9.2 mph 16.1 mph N/A   Overcast
8:16 AM 50.0 °F - 42.8 °F 76% 29.84 in 10.0 mi South 12.7 mph 19.6 mph N/A   Overcast
8:36 AM 48.2 °F - 42.8 °F 82% 29.85 in 10.0 mi South 12.7 mph 23.0 mph N/A   Overcast
8:56 AM 50.0 °F - 42.8 °F 76% 29.86 in 10.0 mi South 11.5 mph 21.9 mph N/A   Mostly Cloudy
9:16 AM 50.0 °F - 42.8 °F 76% 29.87 in 10.0 mi South 5.8 mph - N/A   Mostly Cloudy
9:36 AM 50.0 °F - 42.8 °F 76% 29.87 in 10.0 mi Calm Calm - N/A   Mostly Cloudy
9:56 AM 50.0 °F - 42.8 °F 76% 29.87 in 10.0 mi South 5.8 mph - N/A   Mostly Cloudy
10:16 AM 51.8 °F - 42.8 °F 71% 29.88 in 10.0 mi South 4.6 mph - N/A   Mostly Cloudy
10:36 AM 50.0 °F - 42.8 °F 76% 29.89 in 10.0 mi SSE 3.5 mph - N/A   Mostly Cloudy
10:56 AM 51.8 °F - 42.8 °F 71% 29.89 in 10.0 mi SSE 5.8 mph - N/A   Mostly Cloudy
11:16 AM 51.8 °F - 42.8 °F 71% 29.89 in 10.0 mi South 5.8 mph - N/A   Mostly Cloudy
11:36 AM 50.0 °F - 41.0 °F 71% 29.90 in 10.0 mi South 9.2 mph 19.6 mph N/A   Mostly Cloudy
11:56 AM 48.2 °F - 42.8 °F 82% 29.90 in 10.0 mi South 13.8 mph 24.2 mph N/A   Overcast
12:16 PM 48.2 °F - 42.8 °F 82% 29.90 in 10.0 mi South 8.1 mph 18.4 mph N/A   Overcast
12:36 PM 51.8 °F - 42.8 °F 71% 29.90 in 10.0 mi South 6.9 mph - N/A   Mostly Cloudy
12:56 PM 51.8 °F - 44.6 °F 76% 29.90 in 10.0 mi NE 9.2 mph - N/A   Mostly Cloudy
1:16 PM 51.8 °F - 44.6 °F 76% 29.91 in 10.0 mi East 4.6 mph - N/A   Mostly Cloudy
1:36 PM 51.8 °F - 39.2 °F 62% 29.90 in 10.0 mi SSW 8.1 mph - N/A   Mostly Cloudy
1:56 PM 51.8 °F - 41.0 °F 67% 29.90 in 10.0 mi Calm Calm - N/A   Mostly Cloudy
2:16 PM 51.8 °F - 42.8 °F 71% 29.90 in 10.0 mi East 3.5 mph - N/A   Mostly Cloudy
2:36 PM 50.0 °F - 42.8 °F 76% 29.89 in 10.0 mi Calm Calm - N/A   Mostly Cloudy
2:56 PM 51.8 °F - 42.8 °F 71% 29.88 in 10.0 mi Calm Calm - N/A   Overcast
3:16 PM 50.0 °F - 42.8 °F 76% 29.89 in 10.0 mi SW 3.5 mph - N/A   Overcast
3:36 PM 48.2 °F - 42.8 °F 82% 29.89 in 5.0 mi SW 4.6 mph - N/A   Overcast
3:56 PM 48.2 °F - 42.8 °F 82% 29.88 in 5.0 mi South 4.6 mph - N/A   Overcast
4:16 PM 48.2 °F - 44.6 °F 87% 29.87 in 5.0 mi NNE 4.6 mph - N/A   Overcast
4:36 PM 48.2 °F - 44.6 °F 87% 29.87 in 5.0 mi NW 5.8 mph - N/A   Overcast
4:56 PM 48.2 °F - 44.6 °F 87% 29.87 in 5.0 mi East 4.6 mph - N/A   Overcast
5:16 PM 48.2 °F - 42.8 °F 82% 29.86 in 5.0 mi Calm Calm - N/A   Overcast
5:36 PM 48.2 °F - 44.6 °F 87% 29.86 in 5.0 mi NE 5.8 mph - N/A   Overcast
5:56 PM 48.2 °F - 42.8 °F 82% 29.86 in 10.0 mi North 3.5 mph - N/A   Overcast
6:16 PM 46.4 °F 44.3 °F 44.6 °F 93% 29.85 in 10.0 mi North 4.6 mph - N/A   Overcast
6:36 PM 46.4 °F 44.3 °F 44.6 °F 93% 29.85 in 10.0 mi NW 4.6 mph - N/A   Overcast
6:56 PM 46.4 °F 45.2 °F 44.6 °F 93% 29.85 in 10.0 mi NNW 3.5 mph - N/A   Overcast
7:16 PM 46.4 °F - 44.6 °F 93% 29.85 in 10.0 mi Calm Calm - N/A   Overcast
7:36 PM 48.2 °F - 42.8 °F 82% 29.84 in 10.0 mi SSW 8.1 mph - N/A   Overcast
7:56 PM 48.2 °F - 42.8 °F 82% 29.85 in 10.0 mi SSW 9.2 mph - N/A   Overcast
8:16 PM 48.2 °F - 42.8 °F 82% 29.84 in 10.0 mi West 5.8 mph - N/A   Overcast
8:36 PM 48.2 °F - 42.8 °F 82% 29.84 in 10.0 mi South 11.5 mph 18.4 mph N/A   Overcast
8:56 PM 48.2 °F - 42.8 °F 82% 29.84 in 10.0 mi SSE 4.6 mph - N/A   Overcast
9:16 PM 48.2 °F - 42.8 °F 82% 29.83 in 10.0 mi South 8.1 mph - N/A   Overcast
9:36 PM 46.4 °F 40.7 °F 41.0 °F 81% 29.83 in 10.0 mi South 12.7 mph 20.7 mph N/A   Overcast
9:56 PM 48.2 °F - 41.0 °F 76% 29.83 in 10.0 mi SSW 11.5 mph 24.2 mph N/A   Overcast
10:16 PM 48.2 °F - 41.0 °F 76% 29.83 in 10.0 mi SSW 9.2 mph 18.4 mph N/A   Mostly Cloudy
10:36 PM 48.2 °F - 41.0 °F 76% 29.83 in 10.0 mi South 6.9 mph - N/A   Overcast
10:56 PM 46.4 °F 45.2 °F 42.8 °F 87% 29.83 in 4.0 mi South 3.5 mph - N/A   Overcast
11:16 PM 46.4 °F 41.5 °F 41.0 °F 81% 29.83 in 10.0 mi SSW 10.4 mph 16.1 mph N/A   Overcast
11:36 PM 46.4 °F 44.3 °F 41.0 °F 81% 29.83 in 10.0 mi SSW 4.6 mph - N/A   Overcast
11:56 PM 46.4 °F - 42.8 °F 87% 29.83 in 10.0 mi Calm Calm - N/A   Mostly Cloudy